#timestamp,LO_Frequency,Hit 
1500685215.6,286046958.2,Y
1500685235.5,286046957.9,Y
1500685255.3,286046957.6,Y
1500685275.1,286046958.8,Y
1500685295.9,286046962.4,N
1500685315.7,286046961.3,N
1500685335.6,286046964.0,N
1500685355.4,286046961.9,N
1500685375.2,286046965.5,N
1500685395.1,286046965.4,N
1500685396.0,286046965.4,N
1500685415.8,286046961.8,N
1500685435.6,286046966.9,N
1500685455.5,286046967.0,N
1500685475.3,286046968.7,N
1500685495.2,286046968.9,N
1500685515.9,286046976.2,N
1500685535.7,286046974.8,N
1500685555.6,286046981.8,N
1500685575.4,286046981.2,N
1500685595.2,286046978.9,N
1500685615.1,286046983.5,N
1500685616.0,286046983.5,N
1500685635.8,286046978.0,N
1500685655.7,286046973.3,N
1500685675.5,286046969.6,N
1500685695.3,286046966.8,N
1500685715.2,286046963.7,N
1500685735.0,286046961.5,N
1500685735.9,286046961.5,N
1500685755.8,286046959.4,N
1500685775.6,286046955.0,N
1500685795.4,286046951.9,N
1500685815.3,286046951.2,N
1500685835.1,286046947.9,N
1500685855.8,286046948.4,N
1500685875.7,286046947.1,N
1500685895.5,286046947.3,N
1500685915.4,286046945.4,N
1500685935.2,286046945.2,N
1500685955.0,286046940.5,N
1500685955.9,286046940.5,N
1500685975.8,286046940.9,N
1500685995.6,286046941.9,N
1500686015.5,286046938.9,N
1500686035.3,286046940.1,N
1500686055.1,286046938.0,N
1500686075.9,286046936.1,Y
1500686095.7,286046965.9,N
1500686115.5,286046963.3,N
1500686135.4,286046964.4,N
1500686155.2,286046963.1,N
1500686175.1,286046961.7,N
1500686176.0,286046961.7,N
1500686195.8,286046961.7,N
1500686215.6,286046961.3,N
1500686235.5,286046961.7,N
1500686255.3,286046959.8,N
1500686275.2,286046961.6,N
1500686295.9,286046959.9,N
1500686315.7,286046961.2,N
1500686335.6,286046958.5,N
1500686355.4,286046959.4,N
1500686375.2,286046957.8,Y
1500686395.1,286046996.0,N
1500686396.0,286046996.0,N
1500686415.8,286046993.4,N
1500686435.7,286046994.3,N
1500686455.5,286046992.1,N
1500686475.3,286046994.1,N
1500686495.2,286046991.8,N
1500686515.0,286046992.8,N
1500686515.9,286046992.8,N
1500686535.8,286046992.9,N
1500686555.6,286046990.7,N
1500686575.4,286046988.5,N
1500686595.3,286046989.4,N
1500686615.1,286046986.9,N
1500686635.8,286046989.9,N
1500686655.7,286046985.4,N
1500686675.6,286046986.6,N
1500686695.4,286046984.0,N
1500686715.3,286046984.3,N
1500686735.1,286046982.5,N
1500686755.9,286046983.3,N
1500686775.7,286046981.9,N
1500686795.5,286046979.1,N
1500686815.4,286046978.9,N
1500686835.2,286046979.2,N
1500686855.0,286046979.6,N
1500686855.9,286046979.6,N
1500686875.8,286046979.5,N
1500686895.6,286046980.4,N
1500686915.5,286046977.3,N
1500686935.3,286046976.2,N
1500686955.1,286046975.9,N
1500686975.9,286046975.9,N
1500686995.7,286046976.5,N
1500687015.5,286046976.7,N
1500687035.4,286046974.3,N
1500687055.2,286046974.5,N
1500687075.1,286046974.9,N
1500687076.0,286046974.9,N
1500687095.8,286046975.2,N
1500687115.6,286046975.0,N
1500687135.5,286046974.3,N
1500687155.3,286046974.3,N
1500687175.1,286046974.9,N
1500687195.9,286046975.6,N
1500687215.7,286046975.6,N
1500687235.6,286046973.8,N
1500687255.4,286046973.5,N
1500687275.2,286046971.0,N
1500687295.1,286046970.9,N
1500687296.0,286046970.9,N
1500687315.8,286046972.0,N
1500687335.6,286046972.2,N
1500687355.5,286046972.0,N
1500687375.3,286046972.0,N
1500687425.2,286046971.9,Y
1500687435.1,286046985.0,N
1500687455.8,286046996.6,N
1500687475.7,286046996.5,N
1500687495.5,286046996.7,N
1500687515.4,286046997.7,N
1500687535.2,286046997.4,N
1500687555.0,286046997.7,N
1500687555.9,286046997.7,N
1500687575.8,286046994.9,N
1500687595.6,286046995.2,N
1500687615.4,286046996.1,N
1500687635.3,286046995.0,N
1500687655.1,286046996.2,N
1500687675.9,286046995.4,N
1500687695.7,286046996.1,N
1500687715.5,286046996.2,N
1500687735.4,286046993.5,N
1500687755.2,286046993.5,N
1500687775.0,286046993.4,N
1500687775.9,286046993.4,N
1500687795.8,286046994.8,N
1500687815.6,286046991.8,N
1500687835.5,286046991.7,N
1500687855.3,286046993.6,N
1500687875.1,286046994.2,N
1500687895.9,286046994.1,N
1500687915.7,286046994.0,N
1500687935.5,286046992.2,N
1500687955.4,286046994.7,N
1500687975.2,286046993.0,N
1500687995.1,286046992.9,N
1500687996.0,286046992.9,N
1500688015.8,286046993.1,N
1500688035.6,286046990.7,N
1500688055.5,286046990.8,N
1500688075.3,286046992.2,N
1500688095.1,286046992.8,N
1500688115.9,286046992.9,N
1500688135.7,286046990.6,N
1500688155.6,286046990.1,N
1500688175.4,286046990.4,N
1500688195.2,286046992.8,N
1500688215.1,286046993.2,N
1500688216.0,286046993.2,N
1500688235.8,286046990.1,N
1500688255.6,286046991.0,N
1500688275.5,286046991.0,N
1500688295.3,286046991.6,N
1500688315.2,286046991.4,N
1500688335.9,286046991.6,N
1500688355.7,286046991.6,N
1500688375.6,286046991.6,N
1500688395.4,286046988.7,N
1500688415.3,286046988.7,N
1500688435.1,286046991.6,N
1500688436.0,286046991.6,N
1500688455.8,286046989.6,N
1500688475.7,286046990.0,N
1500688495.5,286046987.4,N
1500688515.3,286046989.6,N
1500688535.2,286046986.3,N
1500688555.0,286046988.1,N
1500688555.9,286046988.1,N
1500688575.8,286046989.9,N
1500688595.6,286046989.8,N
1500688615.4,286046986.9,N
1500688635.3,286046987.1,N
1500688655.1,286046989.3,N
1500688675.8,286046987.2,N
1500688695.7,286046989.5,N
1500688715.5,286046987.1,N
1500688735.4,286046987.6,N
1500688755.2,286046987.7,N
1500688775.0,286046988.2,Y
1500688775.9,286046988.2,Y
1500688795.8,286047003.1,N
